This is the latest recevied weather packets stored in our database for station/object N1ORT. If no packets are shown the sender has not sent any weather packets the latest 10 day(s).
| Time | Temp. | Humidity | Pressure | Rain* | Wind** | Luminosity | Snow |
|---|---|---|---|---|---|---|---|
| 1778013494 | 27.78° C | 36% | 1002.8 hPa | 0 mm | - | 275 W/m² | - |
| 1778013191 | 27.22° C | 37% | 1003 hPa | 0 mm | - | 148 W/m² | - |
| 1778012887 | 27.78° C | 37% | 1002.8 hPa | 0 mm | - | 272 W/m² | - |
| 1778012583 | 27.22° C | 36% | 1003 hPa | 0 mm | - | 174 W/m² | - |
| 1778012280 | 27.78° C | 36% | 1003.1 hPa | 0 mm | - | 108 W/m² | - |
| 1778011977 | 28.33° C | 37% | 1003.1 hPa | 0 mm | - | 113 W/m² | - |
| 1778011676 | 28.33° C | 35% | 1003 hPa | 0 mm | - | 170 W/m² | - |
| 1778011372 | 28.33° C | 35% | 1003 hPa | 0 mm | - | 385 W/m² | - |
| 1778011067 | 28.89° C | 35% | 1003.1 hPa | 0 mm | - | 561 W/m² | - |
| 1778010766 | 28.89° C | 33% | 1003.1 hPa | 0 mm | - | 625 W/m² | - |
| 1778010462 | 28.89° C | 35% | 1003 hPa | 0 mm | - | 612 W/m² | - |
| 1778010159 | 28.89° C | 36% | 1002.8 hPa | 0 mm | - | 647 W/m² | - |
| 1778009855 | 28.33° C | 35% | 1003.1 hPa | 0 mm | - | 167 W/m² | - |
| 1778009552 | 27.78° C | 37% | 1003.1 hPa | 0 mm | - | 181 W/m² | - |
| 1778009251 | 29.44° C | 36% | 1003.2 hPa | 0 mm | - | 708 W/m² | - |
| 1778008948 | 28.89° C | 37% | 1003.3 hPa | 0 mm | - | 245 W/m² | - |
| 1778008646 | 28.89° C | 35% | 1003.6 hPa | 0 mm | - | 160 W/m² | - |
| 1778008344 | 29.44° C | 35% | 1003.4 hPa | 0 mm | - | 334 W/m² | - |
| 1778008040 | 30° C | 35% | 1003.8 hPa | 0 mm | - | 717 W/m² | - |
| 1778007740 | 28.89° C | 33% | 1003.8 hPa | 0 mm | - | 773 W/m² | - |
| 1778007437 | 27.78° C | 36% | 1003.8 hPa | 0 mm | - | 794 W/m² | - |
| 1778007133 | 28.89° C | 35% | 1003.9 hPa | 0 mm | - | 453 W/m² | - |
| 1778006829 | 28.89° C | 35% | 1003.9 hPa | 0 mm | - | 805 W/m² | - |
| 1778006527 | 27.78° C | 36% | 1004.1 hPa | 0 mm | - | 855 W/m² | - |
| 1778006223 | 27.22° C | 36% | 1004.3 hPa | 0 mm | - | 227 W/m² | - |
* Rain latest hour (hover to see other rain measurements)
** Current wind speed in m/s (hover to see current wind gust speed)